Location: Friedrichshafen
(47.6598°N, 9.4819°E)
Time: 20:33:45
(UTC+01:00)

ISS - Pass Details

Date: 18 November 2017
Orbit: 402 x 407 km, 51.6° (Epoch: 20 November)

Event Time Altitude Azimuth Distance (km) Brightness Sun altitude
Exits shadow 05:31:22 14° 187° (S) 1,221 -1.4 -20.1°
Drops below altitude 10° 05:32:13 10° 174° (S) 1,448 -0.9 -19.9°
Sets 05:34:40 0° 156° (SSE) 2,302 0.4 -19.5°
